This demonstration page uses our WeatherBlox Daily Observations layout. Learn more.

Left ArrowRight Arrow

39.51506, -84.39828

Hourly Observations for June 20, 2016

Temp ( °F °C ) Dew Point ( °F °C ) Humidity (%) Winds ( mph kmh ) Pressure ( in mb ) Visibility ( mi km ) Precip ( " mm )
12:15 am 00:15 Clear 74 23.6 66 18.8 75 75 N N/A 30.21 1023 10 16 N/A
12:35 am 00:35 Clear 74 23.6 66 18.9 75 75 N N/A 30.21 1023 10 16 N/A
12:55 am 00:55 Clear 74 23.6 67 19.6 78 78 N N/A 30.18 1022 10 16 N/A
1:15 am 01:15 Clear 74 23.6 67 19.7 79 79 N N/A 30.21 1023 10 16 N/A
1:35 am 01:35 Clear 73 22.6 66 18.8 79 79 N N/A 30.21 1023 10 16 N/A
1:55 am 01:55 Clear 72 22.1 66 18.7 81 81 N N/A 30.21 1023 10 16 N/A
2:15 am 02:15 Clear 72 22.4 66 18.9 81 81 N N/A 30.21 1023 10 16 N/A
2:35 am 02:35 Clear 72 22.3 66 18.7 80 80 N N/A 30.21 1023 10 16 N/A
2:55 am 02:55 Clear 69 20.8 63 17.4 81 81 N N/A 30.21 1023 10 16 N/A
3:15 am 03:15 Partly Cloudy 69 20.8 64 17.5 82 82 N N/A 30.21 1023 10 16 N/A
3:35 am 03:35 Mostly Cloudy 71 21.5 65 18.2 82 82 N N/A 30.21 1023 10 16 N/A
3:55 am 03:55 Cloudy 72 22.4 66 18.9 81 81 N N/A 30.21 1023 10 16 N/A
4:15 am 04:15 Mostly Cloudy 74 23.6 68 20 80 80 N N/A 30.21 1023 10 16 N/A
4:35 am 04:35 Partly Cloudy 74 23.6 67 19.7 79 79 N N/A 30.21 1023 10 16 N/A
4:55 am 04:55 Partly Cloudy 71 21.9 65 18.2 80 80 N N/A 30.21 1023 10 16 N/A
5:15 am 05:15 Mostly Cloudy 70 21 64 17.7 82 82 N N/A 30.21 1023 10 16 N/A
5:35 am 05:35 Partly Cloudy 70 21 64 17.7 82 82 N N/A 30.21 1023 10 16 N/A
5:55 am 05:55 Partly Cloudy 69 20.8 64 17.5 82 82 SW 3 6 30.21 1023 10 16 N/A
6:15 am 06:15 Mostly Cloudy 70 21.1 64 17.8 82 82 SW 5 7 30.21 1023 10 16 N/A
6:35 am 06:35 Cloudy 69 20.8 64 17.5 82 82 SW 3 6 30.21 1023 7 11 N/A
6:55 am 06:55 Mostly Cloudy 74 23.1 67 19.7 81 81 SSW 5 7 30.21 1023 10 16 N/A
7:15 am 07:15 Mostly Cloudy 74 23.6 67 19.6 78 78 SSW 6 9 30.21 1023 10 16 N/A
7:35 am 07:35 Mostly Cloudy 74 23.6 67 19.4 77 77 SSW 6 9 30.21 1023 10 16 N/A
7:55 am 07:55 Partly Cloudy 74 23.6 67 19.3 77 77 SSW 5 7 30.21 1023 10 16 N/A
8:15 am 08:15 Sunny 74 23.6 66 19 75 75 SW 5 7 30.21 1023 10 16 N/A
8:35 am 08:35 Sunny 77 25.1 67 19.6 72 72 SSW 3 6 30.21 1023 10 16 N/A
8:55 am 08:55 Sunny 78 25.4 66 19 68 68 S 6 9 30.21 1023 10 16 N/A
9:15 am 09:15 Sunny 80 26.5 66 18.8 63 63 SSW 7 11 30.21 1023 10 16 N/A
9:35 am 09:35 Sunny 81 27.2 66 19.1 61 61 SW 7 11 30.21 1023 10 16 N/A
9:55 am 09:55 Sunny 82 28 66 19 58 58 SSW 10 17 30.21 1023 10 16 N/A
10:15 am 10:15 Sunny 82 28 66 18.7 57 57 SW 9 15 30.18 1022 10 16 N/A
10:35 am 10:35 Partly Cloudy 83 28.5 65 18.3 54 54 WSW 9 15 30.18 1022 10 16 N/A
10:55 am 10:55 Mostly Cloudy 83 28.6 65 18.3 54 54 WSW 12 19 30.18 1022 10 16 N/A
11:15 am 11:15 Partly Cloudy 85 29.4 65 18.5 52 52 SW 14 22 30.18 1022 10 16 N/A
11:35 am 11:35 Partly Cloudy 88 30.9 67 19.2 50 50 SW 16 26 30.15 1021 10 16 N/A
11:55 am 11:55 Partly Cloudy 90 32.1 67 19.7 48 48 SW 14 22 30.15 1021 10 16 N/A
12:15 pm 12:15 Partly Cloudy 90 32.1 66 19 46 46 WSW 15 24 30.15 1021 10 16 N/A
12:35 pm 12:35 Partly Cloudy 90 32.1 67 19.6 48 48 WSW 12 19 30.12 1020 10 16 N/A
12:55 pm 12:55 Partly Cloudy 90 32.1 66 18.8 45 45 WSW 13 20 30.12 1020 10 16 N/A
1:15 pm 13:15 Partly Cloudy 90 32.1 66 19 46 46 WSW 16 26 30.12 1020 10 16 N/A
1:35 pm 13:35 Partly Cloudy 90 32.1 64 18 43 43 SW 13 20 30.09 1019 10 16 N/A
1:55 pm 13:55 Partly Cloudy 90 32.1 64 18 43 43 SW 13 20 30.09 1019 10 16 N/A
2:15 pm 14:15 Partly Cloudy 90 32.1 64 17.5 42 42 WSW 14 22 30.09 1019 10 16 N/A
2:35 pm 14:35 Partly Cloudy 90 32.1 64 17.6 42 42 SW 13 20 30.09 1019 10 16 N/A
2:55 pm 14:55 Partly Cloudy 91 32.6 64 17.5 41 41 SW 14 22 30.09 1019 10 16 N/A
3:15 pm 15:15 Partly Cloudy 91 32.5 60 15.6 36 36 SW 12 19 30.09 1019 10 16 N/A
3:35 pm 15:35 Partly Cloudy 90 32.1 61 16.2 38 38 SW 13 20 30.06 1018 10 16 N/A
3:55 pm 15:55 Sunny 91 32.8 61 16.2 37 37 SW 14 22 30.06 1018 10 16 N/A
4:15 pm 16:15 Partly Cloudy 90 32.1 61 16.3 39 39 SSW 12 19 30.06 1018 10 16 N/A
4:35 pm 16:35 Partly Cloudy 90 32.3 59 15.2 36 36 SW 16 26 30.06 1018 10 16 N/A
4:55 pm 16:55 Partly Cloudy 92 33.4 62 16.9 37 37 SW 12 19 30.06 1018 10 16 N/A
5:15 pm 17:15 Partly Cloudy 90 32.3 60 15.6 36 36 SW 16 26 30.03 1017 10 16 N/A
5:35 pm 17:35 Partly Cloudy 90 32.1 61 15.9 38 38 SW 14 22 30.03 1017 10 16 N/A
5:55 pm 17:55 Partly Cloudy 90 32.1 63 17.2 41 41 SW 14 22 30.03 1017 10 16 N/A
6:15 pm 18:15 Partly Cloudy 90 32.1 62 16.8 40 40 SSW 14 22 30.00 1016 10 16 N/A
6:35 pm 18:35 Sunny 90 32.1 65 18.3 44 44 SW 10 17 30.00 1016 10 16 N/A
6:55 pm 18:55 Sunny 90 32.1 65 18.3 44 44 SSW 12 19 30.00 1016 10 16 N/A
7:15 pm 19:15 Sunny 87 30.7 65 18.1 47 47 SW 7 11 30.00 1016 10 16 N/A
7:35 pm 19:35 Sunny 84 29 63 17.4 50 50 SW 7 11 30.00 1016 10 16 N/A
7:55 pm 19:55 Sunny 83 28.6 64 17.6 51 51 SW 6 9 30.00 1016 10 16 N/A
8:15 pm 20:15 Sunny 82 28 65 18.1 55 55 SW 3 6 30.06 1018 10 16 N/A
8:35 pm 20:35 Partly Cloudy 82 28 66 19 58 58 SSW 7 11 30.03 1017 10 16 N/A
8:55 pm 20:55 Mostly Cloudy with Light Rain 81 27.2 67 19.7 64 64 SSE 7 11 30.03 1017 10 16 N/A
9:15 pm 21:15 Mostly Cloudy with Light Rain 80 26.5 68 20.2 68 68 N N/A 30.03 1017 10 16 N/A
9:35 pm 21:35 Mostly Cloudy 79 26.2 70 21.3 74 74 NNW 10 17 30.06 1018 10 16 N/A
9:55 pm 21:55 Cloudy with Rain 77 25.1 67 19.7 72 72 N N/A 30.03 1017 10 16 N/A
10:15 pm 22:15 Cloudy 76 24.4 68 19.9 76 76 NW 3 6 30.06 1018 10 16 N/A
10:35 pm 22:35 Mostly Cloudy with Light Rain 74 23.6 67 19.6 78 78 NW 3 6 30.06 1018 10 16 N/A
10:55 pm 22:55 Clear 74 23.6 67 19.6 78 78 WNW 3 6 30.03 1017 10 16 N/A
11:15 pm 23:15 Clear 74 23.6 67 19.7 79 79 SSW 5 7 30.03 1017 10 16 N/A
11:35 pm 23:35 Clear 74 23.6 67 19.5 78 78 SSW 6 9 30.00 1016 10 16 N/A
11:55 pm 23:55 Clear 74 23.6 67 19.5 78 78 SW 5 7 30.00 1016 10 16 N/A

Powered by AerisWeather